Theta_e
308 307 311 318 321 323 321 324 324 325 326 325 326 327 326 327 327 331 337 337 337 338 340 344 343 342 340 339 339 340 340 338 339 338 337 335 334 335 334 331 329 334 337 333 332 329 333 336 335
306 310 314 317 318 316 317 320 321 323 325 325 326 326 326 326 326 329 337 332 336 338 339 346 343 341 340 340 338 339 339 338 338 337 337 335 335 337 336 334 334 336 335 333 331 335 335 335 334
306 312 317 316 318 319 315 315 315 319 323 323 325 324 326 327 333 328 322 330 336 338 339 345 343 340 340 340 338 339 339 338 338 337 337 337 335 334 333 330 332 333 333 334 336 336 334 332 333
309 314 315 317 313 314 314 315 317 320 319 322 323 325 324 321 321 318 319 330 336 338 340 344 343 340 339 339 338 338 338 338 338 338 337 337 335 333 332 331 331 332 334 332 335 335 333 330 330
308 312 312 311 311 311 311 313 316 318 319 320 323 323 322 322 318 315 317 327 336 338 340 343 344 340 338 336 337 338 338 338 338 337 335 335 334 332 331 330 330 330 331 331 331 334 332 329 328
306 310 310 309 309 310 310 312 313 314 315 316 317 319 322 323 314 312 314 319 335 338 339 342 343 340 337 335 337 337 338 338 338 336 335 335 333 332 330 329 328 329 330 330 330 331 329 328 327
305 306 307 307 307 307 308 310 311 311 312 314 314 315 316 320 312 311 312 316 322 334 339 341 342 340 337 334 335 336 336 337 336 336 336 334 333 332 329 329 329 328 329 329 329 329 327 327 326
305 306 306 306 305 306 307 308 308 308 308 309 310 312 313 315 310 310 312 313 316 318 330 334 339 340 338 337 335 335 335 336 335 335 334 333 332 331 329 328 328 328 329 329 328 328 328 328 326
304 303 303 304 304 304 305 304 305 306 305 306 305 306 309 309 306 310 310 312 313 313 308 319 331 334 339 338 337 334 334 335 335 335 333 332 331 330 329 328 328 327 328 329 328 328 328 328 326
304 303 303 304 303 303 303 303 303 304 303 304 304 305 305 304 305 306 307 309 311 312 311 307 314 326 333 338 338 336 334 334 334 334 333 332 332 330 329 327 327 327 327 328 328 327 328 327 329
303 303 303 302 302 303 303 303 303 302 302 302 302 303 304 303 303 303 303 305 308 309 310 309 308 311 325 335 338 337 337 335 334 335 334 333 331 330 328 327 326 326 327 328 329 328 329 328 329
302 302 302 302 302 302 302 303 302 302 302 302 302 303 303 303 303 303 303 303 305 306 309 309 306 310 315 325 338 337 337 336 336 335 334 332 331 329 327 326 326 325 327 326 329 330 329 327 328
302 302 302 302 301 301 301 301 302 302 302 302 302 302 302 302 302 302 302 302 303 304 308 308 304 305 308 311 324 337 336 336 336 335 334 332 331 329 327 326 325 325 326 327 329 330 328 327 327
302 302 302 302 302 302 302 302 302 303 303 303 302 302 302 302 303 302 302 302 303 304 306 306 302 304 306 306 312 326 337 335 336 334 334 332 330 329 327 325 325 325 325 329 328 329 328 327 326
302 302 302 302 302 302 303 302 303 303 303 303 303 303 303 303 302 302 302 302 303 303 304 306 304 304 304 310 309 318 335 335 335 333 333 332 330 328 326 325 325 323 326 328 328 329 327 327 326
302 302 304 304 302 302 302 304 304 304 303 303 303 303 303 303 303 302 302 302 303 303 304 305 305 305 306 305 307 320 327 334 333 332 331 331 329 328 327 325 324 323 325 326 327 327 327 326 325
305 306 304 303 302 303 302 303 303 303 303 303 303 303 303 303 303 302 302 302 303 303 303 304 305 304 304 307 315 326 325 333 332 331 331 330 328 327 326 325 324 323 325 325 326 326 326 325 324
303 303 302 303 303 303 304 303 303 303 303 303 303 303 303 303 303 303 302 302 302 303 303 304 305 304 304 312 322 327 329 330 330 329 329 328 327 327 326 324 324 323 325 324 325 326 325 325 324
301 303 303 303 302 303 303 303 303 303 302 302 302 303 303 303 303 303 303 303 303 303 304 304 305 309 307 320 326 327 327 327 328 328 327 327 326 325 325 324 323 323 324 324 323 324 325 324 323
299 300 301 301 301 303 302 301 301 301 300 299 298 299 299 301 303 303 303 302 302 303 304 304 305 309 317 318 323 326 327 327 327 327 326 326 324 325 324 323 323 323 324 324 322 323 323 323 322
299 299 301 300 298 298 298 300 302 300 299 296 295 296 296 297 299 301 302 302 302 303 304 305 306 313 319 324 328 327 326 325 325 325 325 325 324 324 324 323 323 322 323 323 322 321 322 321 320
300 298 297 296 298 301 304 308 300 297 294 293 293 293 294 295 296 298 301 302 303 303 304 305 308 320 325 326 328 326 325 325 325 324 325 324 322 324 323 323 323 323 322 323 323 322 321 321 322
299 296 295 296 298 299 300 304 298 294 292 292 291 291 292 293 296 297 299 301 302 303 304 305 310 321 325 328 327 327 327 326 325 325 324 323 322 323 323 323 322 322 322 322 322 322 322 322 321
295 296 299 303 303 306 306 305 297 293 292 290 288 287 289 301 298 299 299 300 302 303 304 305 317 319 320 322 324 319 318 322 324 324 324 323 323 322 323 322 322 322 322 322 321 321 320 319 315
297 297 303 304 305 305 304 301 296 291 289 288 286 286 296 303 301 301 302 303 302 303 308 312 308 304 306 309 308 308 308 313 305 306 306 306 303 309 310 316 314 314 310 316 312 308 303 304 302
295 295 297 301 302 303 300 299 299 289 287 286 284 286 293 297 300 303 305 308 311 309 306 304 303 300 299 299 298 298 297 298 296 299 296 295 295 295 299 299 301 301 300 298 299 297 294 292 292
294 294 293 296 298 301 300 295 297 288 285 284 283 285 289 293 296 297 299 300 300 301 301 299 297 295 295 295 294 294 293 293 292 292 292 292 292 293 293 294 294 295 293 295 292 293 292 293 290
292 292 296 297 299 301 300 295 289 285 284 283 283 284 287 289 292 294 294 294 294 294 294 293 292 291 291 291 291 290 290 290 292 290 290 289 290 290 292 292 291 293 292 291 291 289 287 287 285
292 292 293 294 295 299 301 295 286 284 283 282 282 283 285 287 289 291 292 291 290 290 290 289 289 289 287 287 287 287 287 287 287 287 286 286 286 287 290 287 286 288 289 286 284 282 280 279 279
291 290 292 297 295 293 295 295 286 283 282 282 281 282 284 285 286 288 288 288 287 287 286 286 286 285 285 284 284 284 284 284 284 283 283 282 283 283 283 282 281 280 279 278 278 278 278 278 278
Wind_Speed
13 7 5 7 7 8 19 20 17 14 18 13 10 8 9 14 8 3 7 15 11 9 14 30 33 34 34 32 33 33 31 29 26 25 23 23 25 22 22 23 22 23 18 15 15 15 13 13 13
8 4 7 6 9 16 18 19 21 15 16 3 6 10 12 14 11 1 2 19 15 10 12 26 32 34 33 31 31 34 33 31 28 27 25 24 24 23 21 21 18 18 21 17 17 15 15 13 11
5 5 6 5 14 20 20 19 15 16 14 17 14 9 11 6 12 6 14 16 13 9 11 23 32 33 32 31 31 34 33 31 30 28 26 24 24 23 23 23 22 19 20 19 17 16 14 13 12
4 6 5 10 23 20 16 12 10 8 11 9 13 12 12 10 5 12 16 15 11 6 10 21 31 34 33 32 31 33 34 32 32 29 27 25 25 24 23 23 22 22 19 18 16 15 14 13 12
7 5 10 17 23 22 19 10 16 11 12 10 7 16 10 8 9 14 17 18 13 7 9 17 31 34 33 32 32 33 34 34 33 30 27 27 27 22 22 21 23 21 19 19 18 15 14 14 13
6 4 12 17 22 20 14 6 11 14 18 18 13 14 17 11 14 17 18 18 13 10 6 17 30 35 34 34 35 35 34 34 32 29 28 28 25 23 23 21 22 21 21 19 18 15 16 15 13
11 12 19 24 24 22 18 3 8 16 16 13 11 10 9 7 14 16 17 15 15 12 8 17 29 36 35 35 34 35 35 34 33 31 30 27 24 24 22 21 22 21 21 19 18 16 16 16 14
7 7 20 19 18 24 9 4 6 11 15 11 9 7 10 11 19 18 17 16 14 17 13 9 20 31 36 33 35 35 36 34 33 32 30 28 25 24 24 21 22 22 22 19 18 18 17 15 15
3 7 14 20 20 21 15 9 11 9 14 16 19 20 19 21 23 22 21 18 15 15 20 19 10 13 34 33 34 35 35 36 34 33 31 28 26 26 24 23 21 20 21 20 18 18 17 15 15
7 10 15 14 12 15 15 16 16 17 18 21 18 18 23 24 19 17 21 20 19 18 18 21 22 18 12 33 31 38 36 36 35 32 32 28 24 29 25 23 21 21 19 19 19 18 16 15 12
6 12 15 16 14 15 18 20 17 19 23 21 22 17 15 17 18 20 23 24 21 18 17 16 23 24 18 15 29 34 34 36 35 32 32 28 25 29 26 23 21 20 18 17 18 18 15 14 14
10 15 16 17 17 17 20 19 22 21 26 21 22 22 22 22 19 18 21 26 22 21 18 15 19 25 24 20 24 34 30 38 31 34 34 29 26 27 27 25 24 23 19 18 17 18 16 16 14
16 18 18 17 17 19 20 23 25 25 23 23 23 24 24 23 21 24 24 25 24 21 18 15 18 18 26 27 16 29 37 33 35 32 33 29 26 24 27 27 26 21 21 20 20 17 19 16 16
11 16 18 18 20 22 23 24 23 21 21 21 22 24 22 22 20 23 22 22 24 19 17 12 19 16 18 27 24 13 35 36 33 27 31 29 26 25 26 30 27 22 23 18 18 18 17 15 14
11 18 20 20 20 16 17 18 21 22 18 17 17 18 19 20 21 19 22 21 21 20 17 15 19 20 15 21 21 25 26 35 36 38 30 29 26 27 26 28 29 27 20 16 16 16 15 14 13
18 18 15 6 8 14 12 21 21 15 12 15 17 16 17 18 19 19 17 17 19 19 17 16 17 18 16 20 24 25 28 28 38 26 32 29 26 25 26 29 27 28 19 17 18 14 11 11 12
10 10 16 22 17 17 11 16 15 15 19 21 20 21 18 18 15 16 17 15 18 19 17 16 14 17 19 18 21 20 19 34 32 32 32 29 27 24 24 27 28 28 21 19 20 15 14 13 13
17 20 21 22 19 16 16 22 22 18 19 19 16 16 17 16 17 16 16 16 19 19 17 17 15 20 21 18 17 20 11 13 24 27 28 28 27 25 22 22 26 29 19 21 20 18 18 13 14
15 19 24 24 23 14 15 16 17 14 13 14 16 16 14 15 16 20 18 16 19 16 17 18 16 21 21 18 11 15 16 19 15 12 24 29 23 23 21 24 24 27 20 19 21 20 15 16 11
22 24 23 24 16 8 14 19 17 2 4 12 15 14 15 15 17 13 16 15 18 15 16 17 17 22 19 20 19 12 17 18 26 21 26 24 21 18 20 23 25 21 18 16 20 19 14 12 14
21 23 17 20 23 25 19 20 4 5 9 18 17 16 16 16 14 15 14 15 17 15 15 15 16 19 19 19 12 15 19 18 17 23 24 23 21 20 19 20 22 21 17 17 19 20 18 11 14
20 17 25 25 13 5 3 1 13 13 19 21 21 22 21 19 16 14 14 14 15 14 13 13 15 14 16 14 18 22 18 16 19 30 29 32 27 23 21 21 18 17 19 19 17 17 18 18 16
16 27 23 21 14 9 14 5 9 16 26 29 29 28 25 21 16 14 13 13 15 13 12 12 14 16 14 16 23 20 16 15 18 19 24 26 32 32 25 20 20 19 19 17 18 16 17 16 17
26 21 13 6 5 3 11 4 12 14 21 27 30 31 32 13 5 10 13 14 16 13 12 10 3 12 19 19 16 15 10 9 11 17 22 23 24 24 23 23 22 20 20 17 13 10 10 10 4
20 19 4 2 4 5 10 7 8 21 21 22 26 28 24 18 7 4 6 6 6 6 5 18 15 21 28 32 32 24 27 25 27 23 22 20 22 23 20 17 19 17 17 16 16 16 17 16 18
15 11 5 6 5 5 9 7 4 22 20 21 20 20 25 23 20 19 18 16 17 20 23 24 18 28 34 35 33 30 26 36 33 33 32 29 31 33 31 31 31 31 32 32 32 35 35 34 35
11 10 10 5 7 3 4 7 7 28 25 27 28 29 27 23 19 17 16 20 23 24 27 20 23 36 35 37 37 34 32 42 41 38 39 35 33 38 43 43 43 42 40 41 39 41 37 35 32
8 10 4 4 7 5 5 5 9 25 24 26 28 27 25 23 21 18 16 22 23 26 22 24 37 45 37 36 35 36 39 40 52 46 46 41 38 42 48 46 44 44 40 42 41 42 37 39 36
13 7 5 2 5 5 6 3 7 16 18 19 20 22 21 21 19 18 15 23 27 23 22 30 41 50 37 36 37 35 38 43 49 50 44 43 42 48 53 46 46 47 46 43 45 42 38 38 33
20 12 5 4 5 3 4 4 11 16 15 16 18 20 20 20 19 17 19 24 24 19 28 40 42 44 35 34 36 40 40 49 53 50 51 45 50 51 51 48 49 47 44 42 43 40 37 36 34
Wind_Direction
331 303 245 205 229 232 251 237 253 244 252 265 254 253 248 246 228 247 85 25 354 318 210 189 192 186 185 182 180 181 181 176 169 165 163 161 158 158 158 160 162 158 157 153 160 154 156 167 159
319 283 216 243 240 239 246 237 247 240 246 203 273 242 252 245 242 279 92 348 330 315 223 185 195 191 188 189 183 184 184 179 174 170 167 166 166 163 164 165 165 163 157 155 156 160 157 151 149
303 232 236 226 237 246 264 268 289 226 234 261 239 247 275 261 65 30 352 336 333 310 224 192 195 194 192 192 189 187 187 183 178 175 172 172 171 168 168 171 172 166 155 162 158 165 156 154 150
273 195 248 245 251 259 275 299 321 296 249 270 270 266 243 65 42 1 343 345 335 310 217 199 198 197 193 193 191 190 188 185 180 179 178 174 173 174 177 178 175 173 165 165 165 160 162 161 159
239 254 247 248 256 267 274 289 292 272 261 252 211 250 247 92 33 359 353 353 343 321 224 215 202 197 194 192 192 191 189 185 184 184 181 178 175 182 180 183 178 180 174 170 178 167 170 170 172
266 277 252 255 259 265 272 308 305 283 269 264 260 274 259 115 26 360 350 355 348 321 277 222 208 197 197 195 193 192 191 190 188 187 185 181 182 187 183 183 178 183 178 175 181 181 177 177 180
256 262 260 273 275 273 282 311 269 274 271 264 330 278 265 204 16 349 340 345 351 347 290 235 205 196 200 198 198 194 194 194 192 188 186 188 189 185 186 186 188 187 180 183 184 186 183 185 180
271 277 266 267 272 268 291 338 315 282 276 298 299 259 251 293 343 325 327 328 341 344 339 316 237 200 201 199 202 199 196 196 193 191 190 190 189 188 188 188 190 191 188 190 192 192 192 191 185
275 252 260 265 269 275 276 276 278 275 271 279 280 279 283 297 311 314 318 316 322 335 342 337 305 262 201 198 203 203 201 199 198 195 193 191 187 187 190 191 192 194 194 195 199 199 197 198 194
236 248 258 282 300 294 284 276 277 275 271 272 271 265 271 283 280 299 300 301 307 315 329 334 328 308 269 206 202 201 203 201 197 194 190 184 182 189 192 193 196 195 197 201 202 207 202 202 200
229 250 276 283 278 274 276 275 276 274 271 271 276 289 302 292 292 292 287 285 290 300 309 324 320 327 310 255 209 197 198 201 196 190 185 183 179 185 188 189 199 198 202 197 203 204 202 204 200
270 259 273 284 289 279 274 282 274 268 271 280 281 284 282 280 279 278 282 286 289 293 295 307 323 317 315 342 212 195 195 196 197 190 186 183 178 175 180 188 194 201 204 203 205 198 201 207 211
272 277 283 286 285 277 279 271 274 274 281 277 276 275 276 277 275 274 273 275 282 282 287 290 304 309 309 306 336 199 197 200 197 191 188 182 178 176 176 186 191 203 202 207 211 209 203 210 214
306 301 292 288 282 280 279 278 277 272 268 271 267 269 272 272 274 273 267 273 276 279 287 298 302 298 297 300 285 306 199 202 188 193 188 182 176 183 179 182 188 198 203 214 216 207 198 205 215
298 290 288 278 271 266 285 279 260 261 265 263 263 268 270 267 268 270 266 267 277 282 288 291 294 284 275 280 303 302 216 199 178 192 190 186 179 184 185 180 190 200 205 208 215 204 195 205 219
272 270 280 264 264 296 245 279 285 286 282 285 285 275 275 271 267 267 267 263 277 279 282 289 284 275 269 286 292 301 273 194 191 191 182 187 183 187 185 181 183 200 205 215 210 205 193 210 219
282 282 302 297 296 290 252 284 292 302 295 291 280 274 274 273 270 264 257 263 276 274 278 283 278 277 261 248 261 260 258 202 191 188 180 185 182 188 190 183 188 200 202 213 208 207 202 211 221
310 301 298 296 306 291 275 277 285 300 291 291 290 285 281 274 268 245 266 284 276 276 274 277 274 273 262 241 255 260 221 190 184 192 180 181 182 183 193 186 190 196 199 211 215 213 209 216 222
302 290 286 287 294 289 273 277 290 327 14 5 354 338 311 285 277 268 273 277 271 269 270 272 274 273 259 222 224 239 202 212 193 222 177 177 182 178 194 188 190 198 203 205 216 217 213 212 215
316 305 295 293 320 313 291 288 297 95 44 26 360 347 334 320 324 286 273 269 266 265 265 270 278 271 233 227 232 228 217 193 202 205 195 178 185 192 195 199 195 196 206 211 214 215 211 214 206
323 305 316 317 317 304 285 278 207 4 27 1 349 340 331 319 306 298 294 277 267 257 258 271 284 261 248 233 188 196 186 176 166 176 186 185 186 205 200 204 199 206 209 217 214 220 213 214 215
315 334 311 301 299 271 4 49 40 12 358 351 348 341 329 314 298 284 276 275 264 254 259 277 285 239 223 212 196 180 178 169 179 180 188 197 207 209 214 212 206 213 219 220 219 215 227 224 230
307 320 306 288 264 265 256 231 19 16 358 350 346 339 326 307 280 273 271 269 266 266 261 275 278 249 212 183 176 189 178 186 186 190 195 194 203 212 206 215 214 220 224 220 225 224 226 237 243
337 322 297 279 184 167 28 252 38 15 354 344 340 336 327 343 276 270 268 259 251 250 252 271 19 82 104 112 123 94 98 105 152 180 190 188 192 182 193 220 224 224 232 225 227 223 206 212 184
346 349 345 64 42 34 358 67 66 12 358 350 337 329 335 7 9 313 278 248 234 260 344 78 71 70 79 91 90 88 91 89 74 79 82 92 89 98 108 143 133 134 123 141 130 111 87 85 86
346 1 14 344 3 343 31 10 88 12 355 348 339 338 1 4 10 15 13 21 62 68 72 76 77 77 72 78 77 79 77 86 78 85 77 67 79 79 97 94 97 93 92 91 95 87 84 80 78
334 5 312 289 221 264 28 8 148 348 351 350 354 357 357 359 7 13 15 34 46 56 66 78 87 78 70 76 79 76 78 81 78 77 81 79 75 88 88 89 89 91 92 94 89 89 86 84 81
11 1 16 334 352 21 68 56 340 346 343 345 351 349 350 355 6 14 18 34 42 53 70 81 76 73 65 70 75 78 79 83 86 80 77 77 78 82 93 87 89 87 89 89 90 86 86 83 76
14 21 354 261 14 336 329 47 5 349 346 344 342 346 350 355 3 13 18 36 44 54 63 72 72 71 65 69 71 74 77 81 85 81 77 78 78 79 86 85 83 85 85 84 83 81 79 78 75
37 14 358 342 5 18 271 63 31 6 354 352 347 351 353 359 6 15 19 36 42 49 62 64 69 75 72 75 76 72 73 76 78 75 77 74 78 80 81 80 79 80 79 79 79 78 75 72 66